Overview Statistics Trail Chart Weather Telemetry Raw packets
 

This is the latest recevied weather packets stored in our database for station/object K7SKM. If no packets are shown the sender has not sent any weather packets the latest 10 day(s).

<< 31 32 33 34 35 36 37 >>
Time Temp. Humidity Pressure Rain* Wind** Luminosity Snow
1788465092 19.44° C 54% 1014.2 hPa 0 mm - 265 W/m² -
1788464787 20° C 55% 1014.2 hPa 0 mm - 272 W/m² -
1788464487 18.89° C 57% 1013.9 hPa 0 mm - 370 W/m² -
1788464183 18.89° C 58% 1014.1 hPa 0 mm - 460 W/m² -
1788463878 18.33° C 60% 1014.2 hPa 0 mm - 380 W/m² -
1788463574 17.78° C 61% 1014.1 hPa 0 mm - 229 W/m² -
1788463274 17.78° C 62% 1014.1 hPa 0 mm - 160 W/m² -
1788462971 17.78° C 63% 1014.2 hPa 0 mm - 136 W/m² -
1788462665 17.78° C 62% 1014.1 hPa 0 mm - 138 W/m² -
1788462364 17.78° C 61% 1014.1 hPa 0 mm - 139 W/m² -
1788462059 17.78° C 62% 1014.1 hPa 0 mm - 139 W/m² -
1788461755 17.78° C 62% 1014.2 hPa 0 mm - 138 W/m² -
1788461450 17.78° C 62% 1014.2 hPa 0 mm - 149 W/m² -
1788461146 17.78° C 64% 1014 hPa 0 mm - 142 W/m² -
1788460841 17.22° C 62% 1014.3 hPa 0 mm - 152 W/m² -
1788460540 17.22° C 64% 1014.2 hPa 0 mm - 159 W/m² -
1788460235 17.22° C 65% 1014.1 hPa 0 mm - 173 W/m² -
1788459934 17.22° C 66% 1014.2 hPa 0 mm - 160 W/m² -
1788459631 17.22° C 67% 1014 hPa 0 mm - 151 W/m² -
1788459329 17.22° C 74% 1014.2 hPa 0 mm - 155 W/m² -
1788459023 17.22° C 73% 1014.1 hPa 0 mm - 169 W/m² -
1788458719 16.67° C 75% 1014.3 hPa 0 mm - 237 W/m² -
1788458418 16.67° C 76% 1014.1 hPa 0 mm - 153 W/m² -
1788458117 16.67° C 78% 1014.2 hPa 0 mm - 169 W/m² -
1788457817 16.11° C 79% 1014.1 hPa 0 mm - 166 W/m² -

* Rain latest hour (hover to see other rain measurements)
** Current wind speed in m/s (hover to see current wind gust speed)